Weather Roundup
Issued by NWS Chicago, IL

Home | Current Version | Previous Version | Text Only | Print | Product List | Glossary Off
Versions: 1 2 3 4 5 6 7 8 9 10 11 12 13 14 15 16 17 18 19 20 21 22 23 24 25 26 27 28 29 30 31 32 33 34 35 36 37 38 39 40 41 42 43 44 45 46 47 48 49 50

000
NZUS59 KLOT 251208
HRRLOT

CHICAGO AREA WEATHER ROUNDUP
NATIONAL WEATHER SERVICE CHICAGO/ROMEOVILLE IL
600 AM CST SAT FEB 25 2017

NOTE: "FAIR" INDICATES FEW OR NO CLOUDS BELOW 12,000 FEET WITH NO
SIGNIFICANT WEATHER AND/OR OBSTRUCTIONS TO VISIBILITY.

* THESE STATIONS ARE NOT UNDER NWS QUALITY CONTROL. THEY ALSO MAY NOT
  REPORT WEATHER SUCH AS PRECIPITATION OR FOG.

ILZ005-006-012>014-019>023-251300-
NORTHEAST ILLINOIS

CITY           SKY/WX    TMP DP  RH WIND       PRES   REMARKS
OHARE          CLOUDY    25  17  72 NW15      29.70R WCI  13
6HR MIN TEMP:  25; 6HR MAX TEMP:  33; 6HR PCP: TRACE;

MIDWAY         FLURRIES  26  16  65 W20G28    29.71R WCI  12
6HR MIN TEMP:  26; 6HR MAX TEMP:  34; 6HR PCP: TRACE;

AURORA         MOCLDY    22  15  75 NW24      29.75R WCI   5
6HR MIN TEMP:  22; 6HR MAX TEMP:  32; 6HR PCP: TRACE;

LANSING*       FLURRIES  28  22  80 W16G23    29.70R WCI  16
JOLIET*        CLOUDY    26  18  72 NW8       29.76R WCI  17
WAUKEGAN       CLOUDY    22  16  78 W10G22    29.68R WCI  11
6HR MIN TEMP:  22; 6HR MAX TEMP:  29; 6HR PCP: TRACE;

DUPAGE AIRPORT FLURRIES  23  15  71 W16G24    29.72R WCI  10
6HR MIN TEMP:  23; 6HR MAX TEMP:  30; 6HR PCP: TRACE;

WHEELING       CLOUDY    23  16  74 NW14G22   29.71R WCI  11
6HR MIN TEMP:  23; 6HR MAX TEMP:  31; 6HR PCP: TRACE;

KANKAKEE*      FLURRIES  27  19  72 W18G29    29.75R WCI  14
MORRIS*        PTCLDY    23  18  78 NW18G29   29.76R WCI   9
LEWIS AIRPORT* CLOUDY    24  20  87 NW21      29.74R WCI   9
NORTHERLY ISL    N/A     27  19  72 W16         N/A  WCI  15
$$

WIZ051-052-058>065-066-070>072-251300-
SOUTHEAST WISCONSIN

CITY           SKY/WX    TMP DP  RH WIND       PRES   REMARKS
MILWAUKEE      FLURRIES  22  16  78 W13       29.66R WCI  10
6HR MIN TEMP:  22; 6HR MAX TEMP:  28; 6HR PCP:  0.01;

KENOSHA*       LGT SNOW  22  16  78 W20G26    29.67R WCI   7
RACINE*        LGT SNOW  22  16  78 NW15G22   29.68R WCI   9
WAUKESHA       LGT SNOW  18  16  93 W17G24    29.67R WCI   2
WEST BEND      LGT SNOW  19  18  93 NW6       29.64R WCI  11
$$

INZ001>003-010>013-019-020-251300-
NORTHWEST INDIANA

CITY           SKY/WX    TMP DP  RH WIND       PRES   REMARKS
GARY*          MOCLDY    30  21  69 W17G32    29.70R WCI  18
MICHIGAN CITY* NOT AVBL
RENSSELAER*    NOT AVBL
VALPARAISO     CLOUDY    31  22  69 W20       29.68R WCI  19
$$

LMZ740>746-251300-
SOUTHERN LAKE MICHIGAN

STATION/POSITION TIME  SKY/WX   TEMP WIND        PRES    VSBY
                                AIR  DIR/SP/G
                 (UTC)          (F)  (DEG/KT/KT) (MB)    (MI)
HARRISON CRIB    1140            27  290/ 22/ 24   N/A
BURNHAM HARBOR   1200            26  230/ 19/ 19   N/A
CALUMET HARBOR   1148            27  290/ 11/ 15 1005.2R
BURNS HARBOR     1140            30  290/ 22/ 27 1004.7R
MICHIGAN CITY    1140            30  270/ 23/ 26   N/A
$$

ABBREVIATIONS USED IN REMARKS
   TC - TEMPERATURE IN CELSIUS
  WCI - WIND CHILL INDEX
   HX - HEAT INDEX
  VSB - VISIBILITY
$$




USA.gov is the U.S. government's official web portal to all federal, state and local government web resources and services.